This is the latest recevied weather packets stored in our database for station/object KG7QQL. If no packets are shown the sender has not sent any weather packets the latest 10 day(s).
| Time | Temp. | Humidity | Pressure | Rain* | Wind** | Luminosity | Snow |
|---|---|---|---|---|---|---|---|
| 1777761563 | 20° C | 61% | - | 0 mm | - | - | - |
| 1777761261 | 19.44° C | 63% | - | 0 mm | - | - | - |
| 1777760959 | 20° C | 62% | - | 0 mm | - | - | - |
| 1777760656 | 20° C | 61% | - | 0 mm | - | - | - |
| 1777760351 | 20° C | 61% | - | 0 mm | - | - | - |
| 1777760048 | 20° C | 61% | - | 0 mm | - | - | - |
| 1777759745 | 20.56° C | 61% | - | 0 mm | - | - | - |
| 1777759441 | 20.56° C | 57% | - | 0 mm | - | - | - |
| 1777759137 | 20.56° C | 56% | - | 0 mm | - | - | - |
| 1777758835 | 20.56° C | 57% | - | 0 mm | - | - | - |
| 1777758532 | 20.56° C | 58% | - | 0 mm | - | - | - |
| 1777758228 | 20.56° C | 58% | - | 0 mm | - | - | - |
| 1777757926 | 21.11° C | 59% | - | 0 mm | - | - | - |
| 1777757623 | 20.56° C | 60% | - | 0 mm | - | - | - |
| 1777757322 | 20.56° C | 61% | - | 0 mm | - | - | - |
| 1777757020 | 20° C | 62% | - | 0 mm | - | - | - |
| 1777756717 | 20° C | 64% | - | 0 mm | - | - | - |
| 1777756412 | 19.44° C | 67% | - | 0 mm | - | - | - |
| 1777756110 | 18.89° C | 68% | - | 0 mm | - | - | - |
| 1777755807 | 18.33° C | 71% | - | 0 mm | - | - | - |
| 1777755504 | 18.33° C | 71% | - | 0 mm | - | - | - |
| 1777755200 | 18.33° C | 71% | - | 0 mm | - | - | - |
| 1777754897 | 18.33° C | 72% | - | 0 mm | - | - | - |
| 1777754594 | 17.78° C | 73% | - | 0 mm | - | - | - |
| 1777754292 | 17.78° C | 73% | - | 0 mm | - | - | - |
* Rain latest hour (hover to see other rain measurements)
** Current wind speed in m/s (hover to see current wind gust speed)